This is the latest recevied weather packets stored in our database for station/object W0AKY-13. If no packets are shown the sender has not sent any weather packets the latest 10 day(s).
| Time | Temp. | Humidity | Pressure | Rain* | Wind** | Luminosity | Snow |
|---|---|---|---|---|---|---|---|
| 1777845431 | 24.44° C | 28% | 1011.3 hPa | 0 mm | - | 170 W/m² | - |
| 1777845128 | 25° C | 30% | 1011.2 hPa | 0 mm | - | 392 W/m² | - |
| 1777844826 | 25° C | 31% | 1011.2 hPa | 0 mm | - | 438 W/m² | - |
| 1777844521 | 25° C | 31% | 1011.2 hPa | 0 mm | - | 298 W/m² | - |
| 1777844216 | 25° C | 29% | 1011.2 hPa | 0 mm | - | 320 W/m² | - |
| 1777843912 | 25° C | 34% | 1011.7 hPa | 0 mm | - | 326 W/m² | - |
| 1777843609 | 24.44° C | 29% | 1011.3 hPa | 0 mm | - | 223 W/m² | - |
| 1777843307 | 24.44° C | 34% | 1011.6 hPa | 0 mm | - | 467 W/m² | - |
| 1777843004 | 24.44° C | 31% | 1011.5 hPa | 0 mm | - | 128 W/m² | - |
| 1777842699 | 25° C | 30% | 1011.5 hPa | 0 mm | - | 495 W/m² | - |
| 1777842396 | 23.89° C | 28% | 1011.6 hPa | 0 mm | - | 516 W/m² | - |
| 1777842093 | 24.44° C | 30% | 1011.8 hPa | 0 mm | - | 235 W/m² | - |
| 1777841788 | 25° C | 33% | 1011.9 hPa | 0 mm | - | 338 W/m² | - |
| 1777841485 | 25° C | 31% | 1011.6 hPa | 0 mm | - | 559 W/m² | - |
| 1777841182 | 24.44° C | 32% | 1011.8 hPa | 0 mm | - | 321 W/m² | - |
| 1777840880 | 24.44° C | 28% | 1011.8 hPa | 0 mm | - | 237 W/m² | - |
| 1777840576 | 24.44° C | 32% | 1011.9 hPa | 0 mm | - | 565 W/m² | - |
| 1777840274 | 25° C | 34% | 1012.1 hPa | 0 mm | - | 568 W/m² | - |
| 1777839971 | 24.44° C | 30% | 1012.1 hPa | 0 mm | - | 613 W/m² | - |
| 1777839669 | 23.89° C | 32% | 1012.2 hPa | 0 mm | - | 498 W/m² | - |
| 1777839367 | 23.89° C | 29% | 1012.2 hPa | 0 mm | - | 377 W/m² | - |
| 1777839063 | 23.89° C | 35% | 1012.3 hPa | 0 mm | - | 528 W/m² | - |
| 1777838759 | 23.89° C | 36% | 1012.2 hPa | 0 mm | - | 230 W/m² | - |
| 1777838456 | 23.89° C | 34% | 1012.2 hPa | 0 mm | - | 494 W/m² | - |
| 1777838148 | 23.89° C | 33% | 1012.3 hPa | 0 mm | - | 460 W/m² | - |
* Rain latest hour (hover to see other rain measurements)
** Current wind speed in m/s (hover to see current wind gust speed)